Weather History for South Bend, IN

Change the Weather History Date:

Tuesday, January 1, 2013

  Actual Average Record
Temperature  
Mean Temperature 21 °F 25 °F  
Max Temperature 30 °F 32 °F 55 °F (1897)
Min Temperature 11 °F 19 °F -10 °F (1968)
Degree Days  
Heating Degree Days 44 40  
Month to date heating degree days 44 40  
Since 1 July heating degree days 2244 2431  
Cooling Degree Days 0 0  
Month to date cooling degree days 0 0  
Year to date cooling degree days 0 0  
Moisture  
Dew Point 16 °F    
Average Humidity 72    
Maximum Humidity 81    
Minimum Humidity 63    
Precipitation  
Precipitation 0.00 in 0.09 in 1.14 in (1916)
Month to date precipitation 0.00 0.09  
Year to date precipitation 0.00 0.09  
Snow  
Snow 0.00 in - - ()
Month to date snowfall 0.0  
Snow Depth 2.00 in    
Sea Level Pressure  
Sea Level Pressure 30.13 in    
Wind  
Wind Speed 5 mph (WNW)    
Max Wind Speed 14 mph    
Max Gust Speed 16 mph    
Visibility 10 miles    
Events      
T = Trace of Precipitation, MM = Missing Value Source: NWS Daily Summary

Daily Weather History Graph

Daily Weather History Graph

Search for Another Location

Airport:

Trip Planner

Search our weather history database for the weather conditions in past years. The results will help you decide how hot, cold, wet, or windy it might be!

Date:

Astronomy

Jan. 01, 2013 Rise Set
Actual Time 8:12 AM EST 5:25 PM EST
Civil Twilight 7:41 AM EST 5:57 PM EST
Nautical Twilight 7:06 AM EST 6:32 PM EST
Astronomical Twilight 6:32 AM EST 7:05 PM EST
Moon 10:00 PM EST (1/1) 10:20 AM EST (1/1)
Length of Visible Light 10h 16m
Length of Day
9h 13m
Waning Gibbous, 83% of the Moon is Illuminated
Jan 1
Waning Gibbous
Jan 4
Last Quarter
Jan 11
New
Jan 18
First Quarter
Jan 26
Full

Hourly Weather History & Observations

Time (EST) Temp. Windchill Dew Point Humidity Pressure Visibility Wind Dir Wind Speed Gust Speed Precip Events Conditions
12:54 AM 28.0 °F 19.3 °F 19.9 °F 72% 30.09 in 10.0 mi NNW 9.2 mph - N/A   Overcast
1:54 AM 27.0 °F 19.5 °F 19.0 °F 72% 30.09 in 10.0 mi NNW 6.9 mph - N/A   Overcast
2:54 AM 27.0 °F 23.0 °F 19.0 °F 72% 30.09 in 10.0 mi NW 3.5 mph - N/A   Overcast
3:12 AM 26.6 °F 22.6 °F 19.4 °F 74% 30.07 in 10.0 mi WNW 3.5 mph - N/A   Overcast
3:45 AM 26.6 °F 22.6 °F 19.4 °F 74% 30.08 in 10.0 mi WNW 3.5 mph - N/A   Overcast
3:54 AM 27.0 °F - 19.9 °F 75% 30.10 in 10.0 mi Calm Calm - N/A   Overcast
4:28 AM 26.6 °F 22.6 °F 19.4 °F 74% 30.07 in 10.0 mi West 3.5 mph - N/A   Overcast
4:54 AM 26.1 °F 21.9 °F 19.9 °F 78% 30.10 in 10.0 mi West 3.5 mph - N/A   Overcast
5:54 AM 25.0 °F 20.7 °F 19.0 °F 78% 30.10 in 10.0 mi West 3.5 mph - N/A   Overcast
6:54 AM 25.0 °F 19.3 °F 18.0 °F 75% 30.13 in 10.0 mi West 4.6 mph - N/A   Overcast
7:54 AM 26.1 °F 21.9 °F 18.0 °F 71% 30.13 in 10.0 mi West 3.5 mph - N/A   Overcast
8:54 AM 26.1 °F 17.6 °F 16.0 °F 66% 30.16 in 10.0 mi NNE 8.1 mph - N/A   Overcast
9:54 AM 26.1 °F 17.6 °F 16.0 °F 66% 30.16 in 10.0 mi NE 8.1 mph - N/A   Overcast
10:54 AM 26.1 °F 18.4 °F 16.0 °F 66% 30.16 in 10.0 mi NNE 6.9 mph - N/A   Overcast
11:54 AM 27.0 °F - 16.0 °F 63% 30.17 in 10.0 mi Calm Calm - N/A   Overcast
12:54 PM 28.0 °F - 18.0 °F 66% 30.17 in 10.0 mi Calm Calm - N/A   Overcast
1:54 PM 28.9 °F 25.2 °F 18.0 °F 64% 30.15 in 10.0 mi WSW 3.5 mph - N/A   Overcast
2:54 PM 28.0 °F 19.3 °F 18.0 °F 66% 30.13 in 10.0 mi West 9.2 mph - N/A   Overcast
3:54 PM 27.0 °F 17.3 °F 19.9 °F 75% 30.15 in 10.0 mi NW 10.4 mph - N/A   Overcast
4:01 PM 26.6 °F 16.8 °F 19.4 °F 74% 30.11 in 10.0 mi NW 10.4 mph - N/A   Overcast
4:15 PM 26.6 °F 17.5 °F 17.6 °F 69% 30.10 in 10.0 mi NW 9.2 mph - N/A   Mostly Cloudy
4:37 PM 26.6 °F 16.8 °F 17.6 °F 69% 30.12 in 10.0 mi NW 10.4 mph - N/A   Mostly Cloudy
4:54 PM 26.1 °F 15.6 °F 16.0 °F 66% 30.15 in 10.0 mi NW 11.5 mph - N/A   Mostly Cloudy
4:58 PM 26.6 °F 16.8 °F 15.8 °F 64% 30.11 in 10.0 mi NW 10.4 mph - N/A   Scattered Clouds
5:54 PM 21.9 °F 13.4 °F 12.9 °F 68% 30.16 in 10.0 mi NW 6.9 mph - N/A   Scattered Clouds
6:28 PM 21.2 °F 11.7 °F 12.2 °F 68% 30.12 in 10.0 mi NW 8.1 mph - N/A   Mostly Cloudy
6:54 PM 19.9 °F 13.4 °F 12.0 °F 71% 30.17 in 10.0 mi WNW 4.6 mph - N/A   Scattered Clouds
7:54 PM 17.1 °F 7.6 °F 10.0 °F 74% 30.19 in 10.0 mi West 6.9 mph - N/A   Scattered Clouds
8:50 PM 15.8 °F 8.6 °F 10.4 °F 79% 30.15 in 10.0 mi West 4.6 mph - N/A   Mostly Cloudy
8:54 PM 16.0 °F 10.4 °F 10.0 °F 77% 30.19 in 10.0 mi West 3.5 mph - N/A   Mostly Cloudy
9:54 PM 14.0 °F - 8.1 °F 77% 30.17 in 10.0 mi Calm Calm - N/A   Scattered Clouds
10:54 PM 10.9 °F 2.9 °F 5.0 °F 77% 30.17 in 10.0 mi West 4.6 mph - N/A   Clear
11:54 PM 12.0 °F 2.7 °F 6.1 °F 77% 30.18 in 10.0 mi WSW 5.8 mph - N/A   Clear